{"data":{"norad_id":64717,"intl_designator":"2025-142X","name":"STARLINK-34568","alt_names":[],"object_type":"PAYLOAD","status":"ACTIVE","operator":null,"country":"US","launch_date":"2025-06-28","launch_site_code":"AFWTR","launch_vehicle":null,"mission":null,"orbit_class":"UNKNOWN","rcs_meters":null,"size_class":null,"mass_kg":null,"dimensions":null,"purposes":["comms"],"wikipedia_slug":null,"has_3d_model":false,"image_url":null,"decayed_at":null,"tle_current":{"epoch":"2026-09-20T16:00:01.999584Z","epoch_age_seconds":113578,"freshness":"FRESH","line1":"1 64717U 25142X   26263.66668981  .00091049  00000+0  30559-2 0  9994","line2":"2 64717  70.0004 180.5062 0003154 267.1171 153.1276 15.30395193  5782","mean_motion":15.30395193,"eccentricity":0.0003154,"inclination_deg":70.0004,"raan_deg":180.5062,"arg_perigee_deg":267.1171,"mean_anomaly_deg":153.1276,"bstar":0.0030559,"rev_number":578,"period_min":94.09334311729,"perigee_km":472.4709568075,"apogee_km":476.79368369472,"semimajor_km":6852.7693202511,"source":"CELESTRAK","updated_at":"2026-09-21T09:00:35.407472Z"}}}